Regional Weather Roundup
Issued by NWS

Home | Current Version | Previous Version | Text Only | Print | Product List | Glossary On
Versions: 1 2 3 4 5 6 7 8 9 10 11 12 13 14 15 16 17 18 19 20 21 22 23 24 25 26 27 28 29 30 31 32 33 34 35 36 37 38 39 40 41 42 43 44 45 46 47 48 49 50
000
ASUS42 KFFC 252203
RWRGA
WEATHER ROUNDUP FOR GEORGIA
NATIONAL WEATHER SERVICE PEACHTREE CITY GA
500 PM EST TUE NOV 25 2014

NOTE: "FAIR" INDICATES FEW OR NO CLOUDS BELOW 12,000 FEET WITH NO
SIGNIFICANT WEATHER AND/OR OBSTRUCTIONS TO VISIBILITY.

* = USE WITH CAUTION. THE STATIONS MARKED WITH AN ASTERISK MAY NOT
REPORT WEATHER SUCH AS PRECIPITATION, FOG, OR THUNDER AND ARE NOT
QUALITY CONTROLLED BY NWS.

THE REMARK "TC" DENOTES TEMPERATURE READING IN DEGREES CELSIUS.

GAZ001>058-252300-
NORTH GEORGIA

CITY           SKY/WX    TMP DP  RH WIND       PRES   REMARKS
ATLANTA        MOCLDY    59  27  29 NW9       30.00R
ATHENS         CLOUDY    53  39  59 S3        30.03R
CHAMBLEE       MOCLDY    57  27  31 NW10      30.01R
PEACHTREE CITY CLOUDY    56  39  53 CALM      30.03R
ROME           PTCLDY    58  32  37 N6        30.01F
WEST ATLANTA   MOCLDY    57  28  33 N5        30.02R
GAINESVILLE    MOCLDY    60  20  21 CALM      30.02R
CARTERSVILLE   MOCLDY    57  28  33 VRB5      30.03R


CITY           SKY/WX    TMP DP  RH WIND       PRES   REMARKS
DALTON*        MOCLDY    55  32  41 N8        30.04R
LAWRENCEVILLE* CLEAR     59  25  27 W7        30.01R
MARIETTA       MOCLDY    56  28  34 NW6       30.02R
KENNESAW*      MOCLDY    55  27  33 N5        30.03S
$$

GAZ059>098-102>109-252300-
CENTRAL GEORGIA

CITY           SKY/WX    TMP DP  RH WIND       PRES   REMARKS
AUGUSTA-BUSH   LGT RAIN  55  53  93 N3        30.01F
AUGUSTA-DANIEL LGT RAIN  54  51  90 N6        30.01F
COLUMBUS       CLOUDY    54  37  52 CALM      30.04S
MACON          LGT RAIN  50  49  96 CALM      30.03R
ROBINS AFB     DRIZZLE   51  48  88 CALM      30.01R


CITY           SKY/WX    TMP DP  RH WIND       PRES   REMARKS
LAGRANGE*      CLOUDY    58  44  59 S3        30.03R
SYLVANIA*      DRIZZLE   57  55  94 E3        30.01F
MILLEDGEVILLE* LGT RAIN  52  52 100 CALM      30.04R
$$

GAZ099>101-110>166-252300-
SOUTH GEORGIA

CITY           SKY/WX    TMP DP  RH WIND       PRES   REMARKS
SAVANNAH       CLOUDY    60  57  89 NW10      30.01R
VALDOSTA       LGT RAIN  56  52  86 N6        29.97F
ALMA           LGT RAIN  50  49  96 VRB3      29.99F FOG
ST SIMONS      RAIN      62  61  96 N6        29.98F FOG
FT STEWART     CLOUDY    57  55  93 N6        29.99S
ALBANY         CLOUDY    51  48  89 NW9       30.06R
HUNTER AFB     LGT RAIN  61  61 100 NW9       29.99R VSB 1
MOODY AFB      LGT RAIN  54  51  89 NE7       29.98S
BRUNSWICK      CLOUDY    63  61  94 NE6       29.98F


CITY           SKY/WX    TMP DP  RH WIND       PRES   REMARKS
BAINBRIDGE*    DRIZZLE   54  52  94 N7        30.03S
MOULTRIE*      CLOUDY    52  52 100 N3        30.01R
VIDALIA*       DRIZZLE   52  50  93 E3        30.01F
WAYCROSS*      CLOUDY    58  56  94 NE6       29.99F
DOUGLAS*       CLOUDY    52  50  93 E8        29.99F
$$



USA.gov is the U.S. government's official web portal to all federal, state and local government web resources and services.